| time (UTC) | temp C | wind direction | speed KPH | gust KPH | rain 1hr cm | rain 24hr cm | rain mn cm | humidity % | barometer mb |
| 20260507072021 | 8 | 135 | 0.0 | 3.2 | 0.03 | 0.64 | 0.64 | 99 | 1011.6 |
| 20260507071017 | 8 | 180 | 0.0 | 3.2 | 0.00 | 0.61 | 0.61 | 99 | 1011.5 |
| 20260507070114 | 8 | 194 | 1.6 | 3.2 | 0.00 | 0.61 | 0.61 | 99 | 1011.5 |
| 20260507065111 | 8 | 135 | 0.0 | 3.2 | 0.00 | 0.61 | 0.61 | 99 | 1011.5 |
| 20260507064107 | 8 | 135 | 0.0 | 3.2 | 0.00 | 0.61 | 0.61 | 99 | 1011.4 |
| 20260507062101 | 8 | 113 | 0.0 | 3.2 | 0.00 | 0.61 | 0.61 | 99 | 1011.0 |
| 20260507061057 | 8 | 124 | 1.6 | 3.2 | 0.03 | 0.61 | 0.61 | 99 | 1011.0 |
| 20260507060054 | 8 | 135 | 1.6 | 3.2 | 0.03 | 0.61 | 0.61 | 98 | 1010.8 |
| 20260507055051 | 8 | 135 | 0.0 | 3.2 | 0.03 | 0.61 | 0.61 | 99 | 1010.8 |
| 20260507054047 | 9 | 124 | 0.0 | 3.2 | 0.03 | 0.61 | 0.61 | 99 | 1010.6 |
| 20260507053044 | 8 | 135 | 0.0 | 3.2 | 0.03 | 0.61 | 0.61 | 99 | 1010.4 |
| 20260507052040 | 9 | 135 | 0.0 | 3.2 | 0.03 | 0.61 | 0.61 | 99 | 1010.4 |
| 20260507051037 | 9 | 113 | 0.0 | 3.2 | 0.00 | 0.56 | 0.56 | 99 | 1010.2 |
| 20260507050034 | 9 | 135 | 1.6 | 3.2 | 0.00 | 0.56 | 0.56 | 99 | 1010.2 |
| 20260507045030 | 9 | 135 | 1.6 | 3.2 | 0.03 | 0.56 | 0.56 | 99 | 1010.0 |
| 20260507044027 | 9 | 146 | 1.6 | 3.2 | 0.03 | 0.56 | 0.56 | 99 | 1009.9 |
| 20260507043023 | 9 | 135 | 0.0 | 3.2 | 0.05 | 0.56 | 0.56 | 99 | 1009.8 |
| 20260507042020 | 9 | 158 | 1.6 | 3.2 | 0.05 | 0.56 | 0.56 | 99 | 1009.6 |
| 20260507041017 | 9 | 113 | 0.0 | 3.2 | 0.10 | 0.56 | 0.56 | 99 | 1009.4 |
| 20260507040114 | 10 | 169 | 1.6 | 6.4 | 0.10 | 0.56 | 0.56 | 98 | 1009.4 |
| 20260507035110 | 10 | 128 | 1.6 | 6.4 | 0.05 | 0.53 | 0.53 | 98 | 1009.3 |
| 20260507034107 | 10 | 135 | 1.6 | 3.2 | 0.05 | 0.53 | 0.53 | 98 | 1009.2 |
| 20260507033103 | 10 | 135 | 1.6 | 6.4 | 0.10 | 0.51 | 0.51 | 98 | 1009.2 |
| 20260507032100 | 10 | 158 | 1.6 | 3.2 | 0.18 | 0.51 | 0.51 | 98 | 1009.2 |
| 20260507031057 | 10 | 153 | 1.6 | 6.4 | 0.18 | 0.48 | 0.48 | 98 | 1008.9 |
| 20260507030053 | 10 | 128 | 1.6 | 3.2 | 0.18 | 0.48 | 0.48 | 98 | 1009.0 |
| 20260507025050 | 10 | 148 | 3.2 | 6.4 | 0.20 | 0.48 | 0.48 | 98 | 1009.0 |
| 20260507024046 | 10 | 142 | 3.2 | 6.4 | 0.23 | 0.48 | 0.48 | 98 | 1008.9 |
| 20260507023043 | 10 | 158 | 3.2 | 6.4 | 0.18 | 0.43 | 0.43 | 98 | 1009.0 |
| 20260507022040 | 10 | 146 | 3.2 | 9.7 | 0.13 | 0.33 | 0.33 | 98 | 1008.9 |
| 20260507021036 | 10 | 159 | 1.6 | 3.2 | 0.13 | 0.30 | 0.30 | 98 | 1009.0 |
| 20260507020033 | 10 | 144 | 3.2 | 6.4 | 0.15 | 0.30 | 0.30 | 98 | 1008.8 |
| 20260507015029 | 10 | 135 | 1.6 | 6.4 | 0.13 | 0.28 | 0.28 | 98 | 1008.9 |
| 20260507014026 | 10 | 135 | 1.6 | 3.2 | 0.13 | 0.23 | 0.23 | 98 | 1008.6 |
| 20260507012019 | 10 | 135 | 0.0 | 3.2 | 0.15 | 0.20 | 0.20 | 98 | 1008.5 |
| 20260507011016 | 10 | 158 | 1.6 | 3.2 | 0.15 | 0.18 | 0.18 | 97 | 1008.5 |
| 20260507005109 | 10 | 137 | 1.6 | 3.2 | 0.13 | 0.15 | 0.15 | 97 | 1008.6 |
| 20260507002059 | 11 | 144 | 3.2 | 6.4 | 0.05 | 0.10 | 0.05 | 97 | 1008.5 |
| 20260507001055 | 11 | 166 | 3.2 | 6.4 | 0.03 | 0.05 | 0.03 | 97 | 1008.6 |
| 20260507000052 | 11 | 149 | 1.6 | 9.7 | 0.03 | 0.05 | 0.03 | 96 | 1008.5 |
| 20260506235049 | 11 | 149 | 3.2 | 6.4 | 0.03 | 0.05 | 0.03 | 96 | 1008.5 |
| 20260506234045 | 11 | 142 | 3.2 | 6.4 | 0.03 | 0.05 | 0.03 | 96 | 1008.5 |
| 20260506232039 | 11 | 139 | 3.2 | 6.4 | 0.00 | 0.03 | 0.00 | 94 | 1008.4 |
| 20260506231035 | 11 | 154 | 1.6 | 6.4 | 0.00 | 0.03 | 0.00 | 93 | 1008.4 |
| 20260506230032 | 11 | 139 | 1.6 | 6.4 | 0.00 | 0.03 | 0.00 | 91 | 1008.5 |
| 20260506225028 | 11 | 135 | 0.0 | 6.4 | 0.00 | 0.03 | 0.00 | 91 | 1008.3 |
| 20260506224025 | 11 | 149 | 1.6 | 3.2 | 0.00 | 0.03 | 0.00 | 92 | 1008.3 |
| 20260506222018 | 12 | 135 | 1.6 | 3.2 | 0.00 | 0.03 | 0.00 | 91 | 1008.1 |
| 20260506221115 | 12 | 124 | 1.6 | 3.2 | 0.00 | 0.03 | 0.00 | 90 | 1008.2 |
| 20260506214105 | 12 | 135 | 3.2 | 6.4 | 0.00 | 0.03 | 0.03 | 89 | 1008.0 |
| 20260506213102 | 12 | 138 | 1.6 | 3.2 | 0.00 | 0.03 | 0.03 | 90 | 1007.8 |
| 20260506212058 | 12 | 147 | 1.6 | 6.4 | 0.00 | 0.03 | 0.03 | 89 | 1007.9 |
| 20260506211055 | 12 | 135 | 1.6 | 3.2 | 0.00 | 0.03 | 0.03 | 89 | 1007.9 |
| 20260506210051 | 12 | 135 | 1.6 | 3.2 | 0.00 | 0.03 | 0.03 | 90 | 1007.8 |
| 20260506205048 | 12 | 126 | 1.6 | 3.2 | 0.00 | 0.03 | 0.03 | 89 | 1007.9 |
| 20260506204044 | 12 | 120 | 0.0 | 3.2 | 0.00 | 0.03 | 0.03 | 89 | 1007.7 |
| 20260506203041 | 12 | 125 | 0.0 | 3.2 | 0.00 | 0.03 | 0.03 | 88 | 1007.6 |
| 20260506202038 | 12 | 145 | 0.0 | 3.2 | 0.00 | 0.03 | 0.03 | 87 | 1007.6 |
| 20260506201034 | 12 | 135 | 1.6 | 3.2 | 0.00 | 0.05 | 0.03 | 86 | 1007.6 |
| 20260506200031 | 12 | 135 | 1.6 | 3.2 | 0.00 | 0.05 | 0.03 | 86 | 1007.6 |
| 20260506194024 | 13 | 135 | 1.6 | 3.2 | 0.00 | 0.10 | 0.03 | 84 | 1007.5 |
| 20260506193021 | 13 | 135 | 1.6 | 3.2 | 0.00 | 0.10 | 0.03 | 83 | 1007.3 |
| 20260506192017 | 13 | 146 | 1.6 | 3.2 | 0.00 | 0.10 | 0.03 | 82 | 1007.2 |
| 20260506191114 | 13 | 158 | 1.6 | 3.2 | 0.00 | 0.10 | 0.03 | 82 | 1007.1 |
| 20260506181053 | 14 | 135 | 0.0 | 3.2 | 0.00 | 0.15 | 0.03 | 81 | 1006.3 |
| 20260506180050 | 14 | 135 | 1.6 | 3.2 | 0.00 | 0.15 | 0.03 | 81 | 1006.3 |
| 20260506174043 | 14 | 113 | 1.6 | 3.2 | 0.00 | 0.15 | 0.03 | 82 | 1006.2 |
| 20260506173040 | 15 | 0.0 | 3.2 | 0.00 | 0.20 | 0.03 | 81 | 1006.1 | |
| 20260506172037 | 15 | 0.0 | 0.0 | 0.00 | 0.30 | 0.03 | 81 | 1005.9 | |
| 20260506171033 | 15 | 0.0 | 3.2 | 0.00 | 0.33 | 0.03 | 80 | 1005.9 | |
| 20260506164023 | 15 | 0.0 | 0.0 | 0.00 | 0.51 | 0.03 | 78 | 1005.9 | |
| 20260506163020 | 15 | 0.0 | 3.2 | 0.00 | 0.51 | 0.03 | 79 | 1005.8 | |
| 20260506162511 | 15 | 0.0 | 0.0 | 0.00 | 0.51 | 0.03 | 78 | 1006.1 | |
| 20260506162016 | 15 | 0.0 | 0.0 | 0.00 | 0.51 | 0.03 | 78 | 1006.1 | |
| 20260506161113 | 16 | 0.0 | 0.0 | 0.00 | 0.51 | 0.03 | 78 | 1006.3 | |
| 20260506160110 | 16 | 31 | 1.6 | 3.2 | 0.00 | 0.56 | 0.03 | 76 | 1006.3 |
| 20260506155106 | 16 | 23 | 3.2 | 9.7 | 0.00 | 0.69 | 0.03 | 73 | 1006.2 |
| 20260506154103 | 16 | 0.0 | 3.2 | 0.00 | 0.79 | 0.03 | 73 | 1006.3 | |
| 20260506152055 | 16 | 135 | 1.6 | 3.2 | 0.00 | 0.89 | 0.03 | 68 | 1006.1 |
| 20260506151050 | 16 | 135 | 0.0 | 3.2 | 0.00 | 0.89 | 0.03 | 70 | 1006.1 |
| 20260506145043 | 16 | 150 | 3.2 | 6.4 | 0.00 | 0.89 | 0.03 | 65 | 1006.1 |
| 20260506144039 | 16 | 145 | 3.2 | 6.4 | 0.00 | 0.89 | 0.03 | 67 | 1006.0 |
| 20260506142033 | 17 | 149 | 1.6 | 11.3 | 0.00 | 0.89 | 0.03 | 67 | 1006.1 |
| 20260506141029 | 17 | 151 | 3.2 | 6.4 | 0.00 | 0.89 | 0.03 | 64 | 1006.2 |
| 20260506140026 | 17 | 133 | 3.2 | 6.4 | 0.00 | 0.89 | 0.03 | 67 | 1006.3 |
| 20260506135022 | 17 | 146 | 4.8 | 9.7 | 0.00 | 0.89 | 0.03 | 64 | 1006.2 |
| 20260506134019 | 17 | 150 | 3.2 | 9.7 | 0.00 | 0.89 | 0.03 | 60 | 1006.4 |
| 20260506133016 | 18 | 148 | 1.6 | 6.4 | 0.00 | 0.89 | 0.03 | 63 | 1006.2 |
| 20260506132113 | 17 | 142 | 3.2 | 6.4 | 0.00 | 0.89 | 0.03 | 67 | 1006.4 |
| 20260506125102 | 16 | 171 | 6.4 | 11.3 | 0.00 | 0.89 | 0.03 | 68 | 1006.4 |
| 20260506122052 | 17 | 165 | 3.2 | 11.3 | 0.00 | 0.89 | 0.03 | 66 | 1006.7 |
| 20260506121049 | 16 | 155 | 3.2 | 9.7 | 0.00 | 0.89 | 0.03 | 68 | 1006.7 |
| 20260506111028 | 16 | 154 | 4.8 | 12.9 | 0.00 | 0.89 | 0.03 | 75 | 1007.0 |
| 20260506104018 | 16 | 149 | 4.8 | 12.9 | 0.00 | 0.89 | 0.03 | 75 | 1006.9 |
| 20260506103115 | 15 | 135 | 3.2 | 6.4 | 0.00 | 0.89 | 0.03 | 79 | 1007.0 |
| 20260506102112 | 17 | 149 | 3.2 | 9.7 | 0.00 | 0.89 | 0.03 | 75 | 1007.1 |
| 20260506101108 | 16 | 148 | 4.8 | 9.7 | 0.00 | 0.89 | 0.03 | 76 | 1007.1 |
| 20260506095101 | 15 | 145 | 4.8 | 9.7 | 0.00 | 0.89 | 0.03 | 80 | 1007.1 |
| 20260506094058 | 15 | 158 | 1.6 | 6.4 | 0.00 | 0.89 | 0.03 | 81 | 1007.2 |
| 20260506092051 | 15 | 146 | 3.2 | 6.4 | 0.00 | 0.89 | 0.03 | 83 | 1007.1 |
| 20260506091047 | 15 | 123 | 3.2 | 6.4 | 0.00 | 0.89 | 0.03 | 84 | 1007.2 |
| 20260506085041 | 13 | 138 | 3.2 | 6.4 | 0.00 | 0.89 | 0.03 | 86 | 1007.0 |
| 20260506084037 | 13 | 162 | 4.8 | 6.4 | 0.00 | 0.89 | 0.03 | 87 | 1006.8 |
| 20260506083034 | 14 | 135 | 1.6 | 6.4 | 0.00 | 0.89 | 0.03 | 88 | 1006.9 |
| 20260506082030 | 13 | 142 | 3.2 | 6.4 | 0.00 | 0.89 | 0.03 | 89 | 1006.7 |
| 20260506073113 | 12 | 168 | 1.6 | 6.4 | 0.00 | 0.89 | 0.03 | 94 | 1006.8 |